Tracking 30922 objects as of 2-Jul-2025
HD Live streaming from Space Station
objects crossing your sky now

CZ-4C DEB

Track CZ-4C DEB now!
10-day predictions


NORAD ID: 42672
Int'l Code: 2015-069E
Perigee: 535.2 km
Apogee: 667.8 km
Inclination: 98.3 °
Period: 96.6 minutes
Semi major axis: 6972 km
RCS: Unknown
Launch date: November 26, 2015
Source: People's Republic of China (PRC)
Launch site: Taiyaun Space Center, China (TSC)

Note: This is SATELLITE DEBRIS
Your satellite tracking list
FENGYUN 1C DEB
Track 1 satellite(s)




NASA's NSSDC Master Catalog

Two Line Element Set (TLE):
1 42672U 15069E   25181.64562188  .00011741  00000-0  10901-2 0  9996
2 42672  98.2552 146.7435 0095102  32.3934 328.3072 14.91144968506491
Source of the keplerian elements: AFSPC